Regional Weather Roundup
Issued by NWS Cleveland, OH

Home | Current Version | Previous Version | Graphics & Text | Print | Product List | Glossary On
Versions: 1 2 3 4 5 6 7 8 9 10 11 12 13 14 15 16 17 18 19 20 21 22 23 24 25 26 27 28 29 30 31 32 33 34 35 36 37 38 39 40 41 42 43 44 45 46 47 48 49 50
000
ASUS41 KCLE 281400
RWRCLE
OHIO REGIONAL WEATHER ROUNDUP
NATIONAL WEATHER SERVICE WILMINGTON, OH
900 AM EST FRI NOV 28 2014

NOTE: "FAIR" INDICATES FEW OR NO CLOUDS BELOW 12,000 FEET WITH NO
SIGNIFICANT WEATHER AND/OR OBSTRUCTIONS TO VISIBILITY.

OHZ001>008-015>018-024>027-034-035-043-044-281500-
   NORTHWEST OHIO

CITY           SKY/WX    TMP DP  RH WIND       PRES   REMARKS
DEFIANCE       CLOUDY    22  15  75 S3        30.35F
FINDLAY        PTSUNNY   24  18  77 SW7       30.35F WCI  16
TOLEDO EXPRESS CLOUDY    19  11  70 SE3       30.34F
TOLEDO METCALF CLOUDY    21  10  62 CALM      30.36F
LIMA           MOSUNNY   24  16  71 SW3       30.34F
$$

OHZ009>014-019>023-028>033-038-089-281500-
   NORTHEAST OHIO

CITY           SKY/WX    TMP DP  RH WIND       PRES   REMARKS
CLE-HOPKINS    CLOUDY    20  12  71 SW9       30.37R WCI   9
CLE-LAKEFRONT  PTSUNNY   26  14  60 W16G24    30.34R WCI  14
CUY CO. ARPT   FLURRIES  27  18  69 NW14      30.33S WCI  15
LORAIN-ELYRIA  PTSUNNY   18  11  74 W7        30.36R WCI   9
ASHTABULA      CLOUDY    23  13  65 NW8       30.31S WCI  14
AKRON-CANTON   FLURRIES  21  13  71 NW8       30.33R WCI  11
WOOSTER        NOT AVBL
MANSFIELD      CLOUDY    21  15  78 CALM      30.34R
YOUNGSTOWN     LGT SNOW  21  15  78 SW10      30.30S WCI  10
$$

OHZ042-051>053-060>062-070>072-077>081-281500-
  SOUTHWEST OHIO

CITY           SKY/WX    TMP DP  RH WIND       PRES   REMARKS
CINC-COVINGTON CLOUDY    27  18  69 S5        30.37F WCI  22
CINC-LUNKEN    CLOUDY    29  21  72 SW6       30.41F WCI  23
HAMILTON       CLOUDY    27  17  66 E5        30.40F WCI  22
DAYTON         NOT AVBL
WRIGHT-PAT AFB NOT AVBL
DAYTON GENERAL CLOUDY    25  16  68 CALM      30.36F
WILMINGTON     CLOUDY    24  14  65 CALM      30.37F
$$

OHZ036-037-039>041-045>050-054>059-063>069-073>076-082>088-281500-
  CENTRAL AND SOUTHEAST OHIO

CITY           SKY/WX    TMP DP  RH WIND       PRES   REMARKS
COLUMBUS       PTSUNNY   25  17  72 W6        30.38S WCI  18
OSU AIRPORT    CLOUDY    24  17  74 W8        30.37S WCI  15
BOLTON FIELD   MOSUNNY   23  19  86 W5        30.38F WCI  17
RICKENBACK AFB NOT AVBL
NEWARK         CLOUDY    25  18  74 W6        30.37S WCI  18
MARION         CLOUDY    24  18  77 W5        30.36S WCI  18
LANCASTER      SUNNY     25  19  78 W6        30.39S WCI  18
ZANESVILLE     MOSUNNY   24  18  77 W7        30.37R WCI  16
NEW PHILLY     CLOUDY    24  13  62 NW7       30.37R WCI  16
$$


USA.gov is the U.S. government's official web portal to all federal, state and local government web resources and services.